AEZ300Z LIRF-LIEE

Flight info

Callsign AEZ300Z
Flight time 0h 50m
Altitude 29000
Route ESINO DCT ABIDU DCT DEXUL Q125 KOVAS
Aircraft B738/M-SDE2E3FGHIRWXY/LB1

Departure

Time 2026-05-07 07:24
Airport Rome–Fiumicino Leonardo da Vinci International Airport (LIRF)

Arrival

Time 2026-05-07 08:15
Airport Cagliari Elmas Airport (LIEE)
Time Latitude Longitude Altitude Speed Heading
2026-05-07 07:01 41.80056 12.26547 14 ft 0 kts 250°
2026-05-07 07:20 41.80056 12.26545 14 ft 0 kts 250°
2026-05-07 07:20 41.80055 12.26544 14 ft 3 kts 250°
2026-05-07 07:20 41.80065 12.26474 15 ft 4 kts 333°
2026-05-07 07:20 41.80120 12.26444 15 ft 14 kts 340°
2026-05-07 07:21 41.80242 12.26411 15 ft 22 kts
2026-05-07 07:21 41.80403 12.26377 14 ft 20 kts 27°
2026-05-07 07:21 41.80459 12.26517 14 ft 15 kts 70°
2026-05-07 07:21 41.80495 12.26650 14 ft 16 kts 70°
2026-05-07 07:22 41.80534 12.26790 13 ft 14 kts 70°
2026-05-07 07:22 41.80573 12.26930 13 ft 18 kts 69°
2026-05-07 07:22 41.80674 12.27048 12 ft 23 kts
2026-05-07 07:22 41.80839 12.27022 12 ft 24 kts 340°
2026-05-07 07:23 41.80954 12.26948 12 ft 9 kts 289°
2026-05-07 07:23 41.80941 12.26873 12 ft 9 kts 250°
2026-05-07 07:23 41.80835 12.26486 14 ft 85 kts 252°
2026-05-07 07:23 41.80548 12.25450 16 ft 151 kts 249°
2026-05-07 07:24 41.80162 12.24012 439 ft 176 kts 250°
2026-05-07 07:24 41.79734 12.22422 1095 ft 187 kts 249°
2026-05-07 07:24 41.79262 12.20729 1653 ft 204 kts 249°
2026-05-07 07:24 41.78797 12.18867 2129 ft 212 kts 256°
2026-05-07 07:25 41.78645 12.14974 3401 ft 208 kts 267°
2026-05-07 07:25 41.78400 12.13199 4385 ft 197 kts 246°
2026-05-07 07:25 41.77544 12.11620 4442 ft 229 kts 215°
2026-05-07 07:26 41.76078 12.10608 4054 ft 247 kts 206°
2026-05-07 07:26 41.74647 12.09357 3975 ft 240 kts 218°
2026-05-07 07:26 41.73349 12.07867 3997 ft 259 kts 221°
2026-05-07 07:26 41.72002 12.06225 4780 ft 267 kts 221°
2026-05-07 07:27 41.70493 12.04830 5755 ft 268 kts 205°
2026-05-07 07:27 41.68712 12.04294 6651 ft 272 kts 183°
2026-05-07 07:27 41.66843 12.04312 7512 ft 276 kts 180°
2026-05-07 07:27 41.64986 12.04359 8370 ft 278 kts 181°
2026-05-07 07:28 41.63067 12.04260 9199 ft 280 kts 191°
2026-05-07 07:28 41.61265 12.03466 10025 ft 278 kts 213°
2026-05-07 07:28 41.59720 12.01924 10893 ft 278 kts 221°
2026-05-07 07:28 41.58214 12.00301 11553 ft 288 kts 220°
2026-05-07 07:29 41.56605 11.98594 12081 ft 303 kts 220°
2026-05-07 07:29 41.54929 11.96823 12633 ft 317 kts 220°
2026-05-07 07:29 41.53168 11.94961 13155 ft 331 kts 219°
2026-05-07 07:29 41.51325 11.93016 13647 ft 346 kts 219°
2026-05-07 07:30 41.49426 11.91015 14469 ft 350 kts 219°
2026-05-07 07:30 41.47538 11.89026 15339 ft 352 kts 219°
2026-05-07 07:30 41.45615 11.87002 16188 ft 355 kts 219°
2026-05-07 07:30 41.43659 11.84942 17004 ft 358 kts 219°
2026-05-07 07:31 41.41709 11.82891 17788 ft 362 kts 219°
2026-05-07 07:31 41.39837 11.80673 18579 ft 363 kts 227°
2026-05-07 07:31 41.38303 11.78031 19315 ft 367 kts 238°
2026-05-07 07:31 41.37204 11.74947 20002 ft 372 kts 247°
2026-05-07 07:32 41.36294 11.71724 20660 ft 377 kts 249°
2026-05-07 07:32 41.35415 11.68428 21383 ft 379 kts 249°
2026-05-07 07:32 41.34544 11.65159 22046 ft 382 kts 249°
2026-05-07 07:32 41.33651 11.61832 22700 ft 385 kts 249°
2026-05-07 07:33 41.32744 11.58472 23271 ft 389 kts 249°
2026-05-07 07:33 41.31833 11.55112 24000 ft 390 kts 249°
2026-05-07 07:33 41.30903 11.51694 24641 ft 392 kts 249°
2026-05-07 07:33 41.29976 11.48296 25200 ft 396 kts 249°
2026-05-07 07:34 41.29039 11.44871 25815 ft 398 kts 249°
2026-05-07 07:34 41.28107 11.41468 26689 ft 393 kts 250°
2026-05-07 07:34 41.27179 11.38085 27557 ft 388 kts 250°
2026-05-07 07:34 41.26262 11.34751 28423 ft 382 kts 249°
2026-05-07 07:35 41.25349 11.31434 28878 ft 386 kts 249°
2026-05-07 07:35 41.23504 11.24748 28969 ft 384 kts 249°
2026-05-07 07:36 41.21687 11.18177 28968 ft 378 kts 249°
2026-05-07 07:36 41.19876 11.11646 28970 ft 378 kts 249°
2026-05-07 07:37 41.18051 11.05086 28967 ft 380 kts 249°
2026-05-07 07:37 41.16230 10.98554 28972 ft 377 kts 249°
2026-05-07 07:38 41.14403 10.92021 28979 ft 377 kts 249°
2026-05-07 07:38 41.12584 10.85526 28981 ft 377 kts 250°
2026-05-07 07:39 41.10767 10.79057 28983 ft 376 kts 249°
2026-05-07 07:39 41.08933 10.72550 28981 ft 375 kts 250°
2026-05-07 07:40 41.07122 10.66135 28984 ft 375 kts 249°
2026-05-07 07:40 41.05308 10.59727 28984 ft 372 kts 249°
2026-05-07 07:41 41.03807 10.54447 28988 ft 373 kts 249°
2026-05-07 07:41 41.02158 10.48649 28984 ft 373 kts 249°
2026-05-07 07:42 41.00346 10.42310 28984 ft 370 kts 249°
2026-05-07 07:42 40.97869 10.36355 28986 ft 373 kts 232°
2026-05-07 07:43 40.94056 10.31734 28987 ft 378 kts 224°
2026-05-07 07:43 40.90055 10.27310 28984 ft 374 kts 223°
2026-05-07 07:44 40.86098 10.22927 28986 ft 376 kts 224°
2026-05-07 07:44 40.82121 10.18533 28985 ft 375 kts 224°
2026-05-07 07:45 40.78131 10.14128 28987 ft 375 kts 224°
2026-05-07 07:45 40.74137 10.09726 28987 ft 374 kts 224°
2026-05-07 07:46 40.70138 10.05323 28984 ft 374 kts 224°
2026-05-07 07:46 40.66137 10.00929 28986 ft 375 kts 224°
2026-05-07 07:47 40.62153 9.96562 28986 ft 373 kts 224°
2026-05-07 07:47 40.58151 9.92182 28989 ft 375 kts 224°
2026-05-07 07:48 40.54127 9.87778 28985 ft 375 kts 224°
2026-05-07 07:48 40.50111 9.83398 28982 ft 376 kts 224°
2026-05-07 07:49 40.46078 9.79006 28984 ft 377 kts 224°
2026-05-07 07:49 40.42063 9.74636 28986 ft 373 kts 224°
2026-05-07 07:50 40.38040 9.70267 28989 ft 377 kts 224°
2026-05-07 07:50 40.34018 9.65909 28990 ft 373 kts 224°
2026-05-07 07:51 40.29984 9.61537 28992 ft 377 kts 224°
2026-05-07 07:51 40.25953 9.57181 28989 ft 373 kts 224°
2026-05-07 07:51 40.23972 9.55050 28987 ft 358 kts 224°
2026-05-07 07:52 40.22073 9.53005 28996 ft 343 kts 224°
2026-05-07 07:52 40.18465 9.49112 28997 ft 340 kts 224°
2026-05-07 07:53 40.14742 9.45096 28995 ft 347 kts 224°
2026-05-07 07:53 40.11036 9.41116 28723 ft 339 kts 223°
2026-05-07 07:53 40.09231 9.39179 28325 ft 335 kts 223°
2026-05-07 07:54 40.07423 9.37243 27895 ft 339 kts 223°
2026-05-07 07:54 40.05579 9.35259 27446 ft 345 kts 223°
2026-05-07 07:54 40.03730 9.33276 26997 ft 342 kts 223°
2026-05-07 07:54 40.01904 9.31324 26559 ft 338 kts 223°
2026-05-07 07:55 40.00098 9.29396 26116 ft 334 kts 222°
2026-05-07 07:55 39.98306 9.27479 25678 ft 332 kts 222°
2026-05-07 07:55 39.96513 9.25562 25239 ft 335 kts 222°
2026-05-07 07:55 39.94697 9.23620 24793 ft 342 kts 221°
2026-05-07 07:56 39.92868 9.21671 24337 ft 339 kts 221°
2026-05-07 07:56 39.91045 9.19733 23897 ft 335 kts 222°
2026-05-07 07:56 39.89263 9.17835 23452 ft 331 kts 221°
2026-05-07 07:56 39.87465 9.15999 23011 ft 330 kts 218°
2026-05-07 07:57 39.85493 9.14416 22572 ft 333 kts 209°
2026-05-07 07:57 39.83315 9.13358 22089 ft 339 kts 200°
2026-05-07 07:57 39.81039 9.12566 21627 ft 337 kts 198°
2026-05-07 07:57 39.78772 9.11821 21176 ft 334 kts 198°
2026-05-07 07:58 39.76509 9.11070 20727 ft 331 kts 198°
2026-05-07 07:58 39.74287 9.10324 20286 ft 328 kts 198°
2026-05-07 07:58 39.72094 9.09588 19856 ft 325 kts 198°
2026-05-07 07:58 39.69898 9.08855 19420 ft 323 kts 197°
2026-05-07 07:59 39.67720 9.08309 18993 ft 322 kts 190°
2026-05-07 07:59 39.65462 9.08289 18559 ft 325 kts 177°
2026-05-07 07:59 39.63240 9.08908 18116 ft 327 kts 168°
2026-05-07 07:59 39.61103 9.09941 17681 ft 329 kts 159°
2026-05-07 08:00 39.59082 9.11435 17240 ft 331 kts 152°
2026-05-07 08:00 39.57177 9.13054 16785 ft 330 kts 151°
2026-05-07 08:00 39.55262 9.14681 16342 ft 328 kts 151°
2026-05-07 08:00 39.53347 9.16277 15901 ft 327 kts 150°
2026-05-07 08:01 39.51419 9.17866 15452 ft 326 kts 151°
2026-05-07 08:01 39.49524 9.19427 15003 ft 324 kts 150°
2026-05-07 08:01 39.47625 9.20993 14565 ft 322 kts 150°
2026-05-07 08:01 39.45743 9.22539 14128 ft 319 kts 150°
2026-05-07 08:02 39.43854 9.24090 13682 ft 317 kts 149°
2026-05-07 08:02 39.42017 9.25596 13255 ft 315 kts 150°
2026-05-07 08:02 39.40148 9.27129 12808 ft 313 kts 149°
2026-05-07 08:02 39.38340 9.28611 12390 ft 311 kts 149°
2026-05-07 08:03 39.36500 9.30119 11964 ft 308 kts 149°
2026-05-07 08:03 39.34703 9.31589 11537 ft 306 kts 149°
2026-05-07 08:03 39.32910 9.33057 11118 ft 304 kts 148°
2026-05-07 08:03 39.31123 9.34516 10679 ft 302 kts 148°
2026-05-07 08:04 39.29363 9.35952 10275 ft 299 kts 148°
2026-05-07 08:04 39.27612 9.37382 9991 ft 293 kts 148°
2026-05-07 08:04 39.25938 9.38747 9877 ft 281 kts 148°
2026-05-07 08:04 39.24307 9.40079 9550 ft 278 kts 148°
2026-05-07 08:05 39.22674 9.41409 9122 ft 278 kts 147°
2026-05-07 08:05 39.21028 9.42749 8765 ft 276 kts 147°
2026-05-07 08:05 39.19399 9.44035 8456 ft 271 kts 151°
2026-05-07 08:05 39.17639 9.44833 8125 ft 269 kts 172°
2026-05-07 08:06 39.15815 9.44573 7749 ft 270 kts 197°
2026-05-07 08:06 39.14140 9.43465 7401 ft 270 kts 213°
2026-05-07 08:06 39.12877 9.41732 7087 ft 270 kts 239°
2026-05-07 08:06 39.12307 9.39448 6846 ft 265 kts 257°
2026-05-07 08:07 39.11675 9.37225 6596 ft 269 kts 235°
2026-05-07 08:07 39.10506 9.35346 6218 ft 274 kts 225°
2026-05-07 08:07 39.09243 9.33535 5824 ft 269 kts 226°
2026-05-07 08:07 39.08011 9.31760 5561 ft 266 kts 226°
2026-05-07 08:08 39.06761 9.29962 5314 ft 268 kts 226°
2026-05-07 08:08 39.05525 9.28186 4898 ft 270 kts 226°
2026-05-07 08:08 39.04282 9.26382 4366 ft 272 kts 230°
2026-05-07 08:08 39.03422 9.24240 3825 ft 269 kts 256°
2026-05-07 08:09 39.03410 9.21922 3263 ft 254 kts 287°
2026-05-07 08:09 39.04237 9.20082 2972 ft 224 kts 322°
2026-05-07 08:09 39.05494 9.19297 2964 ft 186 kts 359°
2026-05-07 08:09 39.06737 9.19280 2962 ft 182 kts 11°
2026-05-07 08:10 39.08012 9.19499 2798 ft 181 kts 13°
2026-05-07 08:10 39.09247 9.19734 2646 ft 181 kts 13°
2026-05-07 08:10 39.10488 9.19980 2508 ft 178 kts 13°
2026-05-07 08:10 39.11723 9.20211 2487 ft 180 kts
2026-05-07 08:11 39.12946 9.19818 2484 ft 191 kts 330°
2026-05-07 08:11 39.13860 9.18547 2488 ft 196 kts 311°
2026-05-07 08:11 39.14826 9.17303 2458 ft 196 kts 324°
2026-05-07 08:11 39.15847 9.16154 2235 ft 192 kts 321°
2026-05-07 08:12 39.16795 9.15036 1972 ft 180 kts 323°
2026-05-07 08:12 39.17705 9.14000 1737 ft 171 kts 322°
2026-05-07 08:12 39.18569 9.12997 1515 ft 166 kts 322°
2026-05-07 08:12 39.19420 9.12028 1295 ft 165 kts 321°
2026-05-07 08:13 39.20269 9.11048 1087 ft 157 kts 320°
2026-05-07 08:13 39.21068 9.10130 874 ft 148 kts 320°
2026-05-07 08:13 39.21830 9.09257 709 ft 148 kts 320°
2026-05-07 08:13 39.22599 9.08380 528 ft 148 kts 320°
2026-05-07 08:14 39.23363 9.07495 289 ft 145 kts 317°
2026-05-07 08:14 39.24096 9.06644 116 ft 141 kts 318°
2026-05-07 08:14 39.24818 9.05809 20 ft 129 kts 317°
2026-05-07 08:14 39.25311 9.05239 20 ft 61 kts 317°
2026-05-07 08:15 39.25523 9.04995 20 ft 29 kts 317°
2026-05-07 08:15 39.25677 9.04852 20 ft 25 kts 349°
2026-05-07 08:15 39.25779 9.04944 20 ft 18 kts 103°
2026-05-07 08:15 39.25694 9.05069 20 ft 21 kts 137°
2026-05-07 08:16 39.25570 9.05213 20 ft 26 kts 139°
2026-05-07 08:16 39.25433 9.05396 20 ft 28 kts 121°
2026-05-07 08:16 39.25372 9.05620 19 ft 24 kts 127°
2026-05-07 08:16 39.25380 9.05745 20 ft 13 kts 54°
2026-05-07 08:17 39.25425 9.05808 20 ft 2 kts
2026-05-07 08:17 39.25440 9.05793 20 ft 3 kts 317°
2026-05-07 08:17 39.25462 9.05769 20 ft 0 kts 321°